Flag for U.S.A. Weather past 2 weeks in Lewiston, Idaho, U.S.A.

Now
55 °F

Sunny.


Feels Like: 55 °F
Forecast: 40 / 63 °F
Wind: No wind

Location: Lewiston-Nez Perce County Airport

Current Time: Mar 28, 2015 at 8:43:49 PM

Latest Report: Mar 28, 2015 at 7:56 PM


Visibility: 10 mi

Pressure: 30.32 "Hg

Humidity: 45%

Dew point: 34 °F

Location of LewistonLocation

Historic Weather in Lewiston — Graph

°F

Lewiston temperature yesterday

Maximum temperature yesterday: 75 °F (at 4:56 PM)
Minimum temperature yesterday: 48 °F (at 5:56 AM)
Average temperature yesterday: 61 °F

Past Weeks' High & Low Weather Summary

 TemperatureHumidityPressure
High75 °F (Mar 27, 4:56 PM)100% (Mar 14, 10:56 PM)30.37 "Hg (Mar 14, 10:56 PM)
Low36 °F (Mar 22, 3:56 AM)36% (Mar 21, 3:56 PM)29.76 "Hg (Mar 15, 4:03 PM)
Average52 °F71%30.08 "Hg
* Reported Mar 13 6:56 PM — Mar 28 6:56 PM, Lewiston, Weather by CustomWeather, © 2015

Note: Actual official high and low records may vary slightly from our data, if they occured in-between our weather recording intervals... More about our weather records

Advertising

Lewiston weather history for previous 24 hours

 ConditionsComfort  
Time TempWeatherWind HumidityBarometerVisibility
6:56 PM
Sat, Mar 28
55 °FSunny.7 mph49%30.29 "Hg10 mi
5:56 PM57 °FSunny.10 mph44%30.28 "Hg10 mi
4:56 PM59 °FPassing clouds.15 mph39%30.27 "Hg10 mi
3:56 PM61 °FPartly sunny.18 mph36%30.24 "Hg10 mi
2:56 PM60 °FMostly cloudy.15 mph41%30.22 "Hg10 mi
1:56 PM61 °FPartly sunny.17 mph38%30.22 "Hg10 mi
12:56 PM59 °FPassing clouds.17 mph39%30.21 "Hg10 mi
11:56 AM59 °FSunny.21 mph39%30.21 "Hg10 mi
10:56 AM58 °FSunny.18 mph41%30.17 "Hg10 mi
9:56 AM56 °FSunny.18 mph46%30.17 "Hg10 mi
8:56 AM54 °FSunny.16 mph47%30.15 "Hg10 mi
7:56 AM51 °FSunny.6 mph61%30.13 "Hg10 mi
6:56 AM49 °FPassing clouds.5 mph66%30.09 "Hg10 mi
5:56 AM51 °FOvercast.6 mph66%30.04 "Hg10 mi
4:56 AM53 °FMostly cloudy.9 mph61%30.01 "Hg10 mi
3:56 AM53 °FLight rain. Overcast.9 mph69%29.98 "Hg10 mi
2:56 AM58 °FMostly cloudy.23 mph58%29.92 "Hg10 mi
1:56 AM59 °FOvercast.12 mph60%29.88 "Hg10 mi
12:56 AM62 °FMostly cloudy.15 mph62%29.86 "Hg10 mi
11:56 PM
Fri, Mar 27
60 °FPassing clouds.9 mph75%29.84 "Hg10 mi
10:56 PM60 °FThundershowers. Mostly cloudy.15 mph78%29.82 "Hg10 mi
9:56 PM61 °FPassing clouds.7 mph72%29.84 "Hg10 mi
8:56 PM64 °FClear.6 mph65%29.85 "Hg10 mi
Weather by CustomWeather, © 2015

See weather overviewHow to use our weather pages